Home   Weather   Bournemouth   Past weeks
Flag for United Kingdom

Past Weather in Bournemouth, England, United Kingdom — Yesterday and Last 2 Weeks

Now
59 °F

Scattered clouds.


Feels Like: 57 °F
Forecast: 59 / 51 °F
Wind: 12 mph from Southwest

Location: Bournemouth Airport

Current Time: Oct 15, 2019 at 5:36:01 pm

Latest Report: Oct 15, 2019 at 4:50 pm


Visibility: N/A

Pressure: 29.65 "Hg

Humidity: 72%

Dew Point: 50 °F

Location of BournemouthLocation

Past Weather in Bournemouth — Graph

°F

Bournemouth Temperature Yesterday

Maximum temperature yesterday: 57 °F (at 5:50 am)
Minimum temperature yesterday: 50 °F (at 11:20 pm)
Average temperature yesterday: 53 °F

High & Low Weather Summary for the Past Weeks

 TemperatureHumidityPressure
High70 °F (Oct 4, 5:50 am)100% (Sep 30, 8:20 pm)30.18 "Hg (Sep 30, 8:20 pm)
Low37 °F (Oct 2, 11:50 pm)48% (Oct 2, 1:50 pm)29.45 "Hg (Oct 1, 11:50 am)
Average57 °F86%29.79 "Hg
* Reported Sep 30 4:20 pm — Oct 15 4:20 pm, Bournemouth. Weather by CustomWeather, © 2019

Note: Actual official high and low records may vary slightly from our data, if they occured in-between our weather recording intervals... More about our weather records

Advertising

Bournemouth Weather History for the Previous 24 Hours

Scroll right to see more
 ConditionsComfort  
Time TempWeatherWind HumidityBarometerVisibility
4:20 pm
Tue, Oct 15
61 °FPassing clouds.10 mph68%29.65 "HgN/A
3:50 pm59 °FScattered clouds.12 mph72%29.65 "HgN/A
3:20 pm61 °FScattered clouds.5 mph77%29.65 "HgN/A
2:50 pm61 °FScattered clouds.8 mph77%29.65 "HgN/A
2:20 pm61 °FScattered clouds.7 mph77%29.65 "HgN/A
1:50 pm63 °FScattered clouds.6 mph77%29.65 "HgN/A
1:20 pm59 °FScattered clouds.3 mph82%29.65 "HgN/A
12:50 pm59 °FBroken clouds.5 mph82%29.65 "HgN/A
12:20 pm57 °FPartly sunny.2 mph100%29.65 "HgN/A
11:50 am55 °FPartly sunny.2 mph100%29.65 "HgN/A
11:20 am54 °FFog.2 mph100%29.65 "Hg2 mi
10:50 am54 °FFog.3 mph100%29.65 "Hg1 mi
10:20 am52 °FFog.3 mph100%29.65 "Hg0 mi
9:50 am52 °FFog.2 mph100%29.65 "Hg0 mi
9:20 am50 °FFog.2 mph100%29.62 "Hg0 mi
8:50 am50 °FFog.2 mph100%29.62 "Hg0 mi
8:20 am50 °FFog.2 mph100%29.62 "Hg0 mi
7:50 am50 °FFog.2 mph100%29.62 "Hg0 mi
7:20 am50 °FFog.2 mph100%29.62 "Hg0 mi
6:50 am50 °FFog.1 mph100%29.62 "Hg0 mi
6:20 am50 °FFog.2 mph100%29.62 "Hg0 mi
5:50 am50 °FFog.2 mph100%29.59 "Hg0 mi
1:20 am48 °FFog.2 mph100%29.59 "Hg0 mi
12:50 am52 °FFog.3 mph94%29.59 "Hg4 mi
12:20 am50 °FPartly cloudy.3 mph94%29.59 "Hg5 mi
11:50 pm
Mon, Oct 14
50 °FPartly cloudy.3 mph100%29.59 "Hg6 mi
11:20 pm50 °FPartly cloudy.5 mph100%29.59 "HgN/A
10:50 pm52 °FPassing clouds.5 mph94%29.59 "HgN/A
10:20 pm52 °FPassing clouds.7 mph94%29.59 "HgN/A
9:50 pm52 °FPassing clouds.6 mph100%29.56 "HgN/A
9:20 pm54 °FPassing clouds.8 mph94%29.56 "HgN/A
8:50 pm52 °FPassing clouds.8 mph100%29.56 "HgN/A
8:20 pm52 °FLow clouds.8 mph100%29.53 "HgN/A
7:50 pm54 °FPassing clouds.9 mph94%29.53 "HgN/A
7:20 pm54 °FPassing clouds.6 mph100%29.53 "Hg4 mi
6:50 pm54 °FLight rain. Partly cloudy.6 mph100%29.53 "Hg4 mi
6:20 pm54 °FLight rain. Partly cloudy.5 mph100%29.50 "HgN/A
5:50 pm54 °FBroken clouds.5 mph100%29.50 "HgN/A
5:20 pm54 °FBroken clouds.8 mph100%29.50 "HgN/A
Weather by CustomWeather, © 2019

See weather overview